Change the Weather History Date:

Tuesday, July 23, 2013

  Actual Average Record
Temperature  
Mean Temperature 72 °F 72 °F  
Max Temperature 83 °F 87 °F 112 °F (2006)
Min Temperature 61 °F 58 °F 55 °F (1999)
Degree Days  
Heating Degree Days 0    
Month to date heating degree days 2  
Since 1 June heating degree days 13  
Since 1 July heating degree days 2  
Cooling Degree Days 7    
Month to date cooling degree days 172  
Year to date cooling degree days 431  
Since 1 June cooling degree days 339  
Growing Degree Days 22 (Base 50)    
Moisture  
Dew Point 47 °F    
Average Humidity 45    
Maximum Humidity 72    
Minimum Humidity 18    
Precipitation  
Precipitation 0.00 in - 0.00 in (2015)
Month to date precipitation 0.00  
Year to date precipitation 2.06  
Since 1 July precipitation 0.00  
Sea Level Pressure  
Sea Level Pressure 29.92 in    
Wind  
Wind Speed 8 mph (WSW)    
Max Wind Speed 16 mph    
Max Gust Speed 21 mph    
Visibility 10 miles    
Events      
T = Trace of Precipitation, MM = Missing Value Source: NWS Daily Summary

Daily Weather History Graph

Daily Weather History Graph

Search for Another Location

Airport or City:

Trip Planner

Search our weather history database for the weather conditions in past years. The results will help you decide how hot, cold, wet, or windy it might be!

Date:

Astronomy

Jul. 23, 2013 Rise Set
Actual Time 6:04 AM PDT 8:24 PM PDT
Civil Twilight 5:34 AM PDT 8:54 PM PDT
Nautical Twilight 4:57 AM PDT 9:31 PM PDT
Astronomical Twilight 4:16 AM PDT 10:11 PM PDT
Moon 8:59 PM PDT (7/23) 7:16 AM PDT (7/23)
Length of Visible Light 15h 20m
Length of Day
14h 20m
Full, 98% of the Moon is Illuminated
Jul 23
Full
Jul 29
Last Quarter
Aug 6
New
Aug 14
First Quarter
Aug 20
Full

Hourly Weather History & Observations

Time (PDT) Temp. Heat Index Dew Point Humidity Pressure Visibility Wind Dir Wind Speed Gust Speed Precip Events Conditions
12:53 AM 63.0 °F - 52.0 °F 67% 29.89 in 10.0 mi WNW 8.1 mph - N/A   Clear
1:53 AM 63.0 °F - 53.1 °F 70% 29.91 in 10.0 mi West 12.7 mph - N/A   Clear
2:53 AM 63.0 °F - 53.1 °F 70% 29.90 in 10.0 mi West 9.2 mph - N/A   Clear
3:53 AM 64.0 °F - 52.0 °F 65% 29.88 in 10.0 mi WNW 6.9 mph - N/A   Clear
4:53 AM 63.0 °F - 53.1 °F 70% 29.91 in 10.0 mi WNW 9.2 mph - N/A   Clear
5:53 AM 62.1 °F - 53.1 °F 72% 29.94 in 10.0 mi NNW 3.5 mph - N/A   Clear
6:53 AM 63.0 °F - 53.1 °F 70% 29.93 in 10.0 mi Calm Calm - N/A   Clear
7:53 AM 66.9 °F - 53.1 °F 61% 29.93 in 10.0 mi Variable 4.6 mph - N/A   Clear
8:53 AM 69.1 °F - 53.1 °F 57% 29.94 in 10.0 mi WNW 6.9 mph - N/A   Clear
9:53 AM 73.0 °F - 54.0 °F 51% 29.95 in 10.0 mi Calm Calm - N/A   Clear
10:53 AM - - - N/A% 29.96 in - NNW 8.1 mph - N/A   Unknown
11:53 AM 82.0 °F 81.2 °F 53.1 °F 37% 29.94 in - North - - N/A   Clear
12:53 PM 81.0 °F - 45.0 °F 28% 29.93 in 10.0 mi North - - N/A   Clear
1:53 PM 81.0 °F - 41.0 °F 24% 29.94 in 10.0 mi West 12.7 mph - N/A   Clear
2:53 PM 81.0 °F - 33.1 °F 18% 29.92 in 10.0 mi West 12.7 mph - N/A   Clear
3:53 PM 79.0 °F - 32.0 °F 18% 29.92 in 10.0 mi WSW 12.7 mph - N/A   Clear
4:53 PM 80.1 °F - 35.1 °F 20% 29.91 in 10.0 mi SW 8.1 mph - N/A   Clear
5:53 PM 79.0 °F - 37.0 °F 22% 29.91 in 10.0 mi SW 11.5 mph - N/A   Clear
6:53 PM 75.9 °F - 46.9 °F 36% 29.90 in 10.0 mi WSW 9.2 mph - N/A   Clear
7:53 PM 75.9 °F - 45.0 °F 33% 29.90 in 10.0 mi SSW 8.1 mph - N/A   Clear
8:53 PM 71.1 °F - 48.9 °F 45% 29.91 in 10.0 mi SSW 8.1 mph - N/A   Clear
9:53 PM 70.0 °F - 46.9 °F 44% 29.91 in 10.0 mi South 8.1 mph - N/A   Clear
10:53 PM 68.0 °F - 46.9 °F 47% 29.92 in 10.0 mi SSW 4.6 mph - N/A   Clear
11:53 PM 66.9 °F - 46.9 °F 49% 29.92 in 10.0 mi SSW 5.8 mph - N/A   Clear